Flag for U.S.A. Weather past 2 weeks in Spartanburg, South Carolina, U.S.A.

Now
37 °F

Clear.


Feels Like: 31 °F
Forecast: 37 / 53 °F
Wind: 9 mph from Northwest

Location: Spartanburg Memorial

Current Time: Mar 28, 2015 at 6:08:03 AM

Latest Report: Mar 28, 2015 at 5:35 AM


Visibility: 10 mi

Pressure: 29.94 "Hg

Humidity: 65%

Dew point: 27 °F

Location of SpartanburgLocation

Historic Weather in Spartanburg — Graph

°F

Spartanburg temperature yesterday

Maximum temperature yesterday: 66 °F (at 12:15 AM)
Minimum temperature yesterday: 45 °F (at 9:15 PM)
Average temperature yesterday: 53 °F

Past Weeks' High & Low Weather Summary

 TemperatureHumidityPressure
High84 °F (Mar 17, 4:15 PM)100% (Mar 13, 4:15 PM)30.49 "Hg (Mar 13, 4:15 PM)
Low37 °F (Mar 28, 5:15 AM)7% (Mar 15, 5:15 PM)29.67 "Hg (Mar 27, 5:15 AM)
Average59 °F60%30.07 "Hg
* Reported Mar 13 5:15 AM — Mar 28 5:15 AM, Spartanburg, Weather by CustomWeather, © 2015

Note: Actual official high and low records may vary slightly from our data, if they occured in-between our weather recording intervals... More about our weather records

Advertising

Spartanburg weather history for previous 24 hours

 ConditionsComfort  
Time TempWeatherWind HumidityBarometerVisibility
5:15 AM
Sat, Mar 28
37 °FClear.10 mph60%29.94 "Hg10 mi
4:35 AM39 °FClear.5 mph61%29.93 "Hg10 mi
4:15 AM39 °FClear.6 mph61%29.93 "Hg10 mi
3:35 AM41 °FClear.9 mph61%29.93 "Hg10 mi
3:15 AM41 °FClear.7 mph61%29.93 "Hg10 mi
2:35 AM41 °FClear.3 mph61%29.93 "Hg10 mi
2:15 AM41 °FClear.6 mph61%29.93 "Hg10 mi
1:35 AM43 °FClear.7 mph57%29.92 "Hg10 mi
1:15 AM45 °FPassing clouds.8 mph53%29.92 "Hg10 mi
12:35 AM45 °FPassing clouds.12 mph57%29.90 "Hg10 mi
11:15 PM
Fri, Mar 27
46 °FPassing clouds.6 mph53%29.87 "Hg10 mi
10:35 PM48 °FPartly cloudy.6 mph54%29.86 "Hg10 mi
10:15 PM46 °FPartly cloudy.5 mph66%29.85 "Hg10 mi
9:35 PM45 °FPassing clouds.No wind100%29.84 "Hg10 mi
9:15 PM45 °FClear.No wind100%29.83 "Hg10 mi
8:35 PM46 °FSunny.No wind82%29.82 "Hg10 mi
8:15 PM46 °FScattered clouds.No wind82%29.81 "Hg10 mi
7:35 PM48 °FBroken clouds.No wind66%29.80 "Hg10 mi
7:15 PM48 °FScattered clouds.5 mph66%29.80 "Hg10 mi
6:35 PM46 °FSunny.5 mph82%29.78 "Hg10 mi
5:35 PM48 °FRain. More clouds than sun.7 mph76%29.79 "Hg10 mi
5:15 PM50 °FOvercast.9 mph67%29.78 "Hg10 mi
4:35 PM50 °FCloudy.10 mph71%29.77 "Hg10 mi
4:15 PM50 °FMostly cloudy.6 mph88%29.76 "Hg10 mi
3:35 PM52 °FMostly cloudy.No wind77%29.77 "Hg10 mi
3:15 PM52 °FMostly cloudy.5 mph82%29.77 "Hg10 mi
2:35 PM50 °FDrizzle. Mostly cloudy.No wind94%29.77 "Hg10 mi
2:15 PM50 °FDrizzle. Cloudy.5 mph88%29.77 "Hg10 mi
1:35 PM50 °FMostly cloudy.12 mph100%29.77 "Hg7 mi
1:15 PM50 °FLight rain. Mostly cloudy.9 mph100%29.77 "Hg7 mi
12:35 PM50 °FCloudy.8 mph100%29.77 "Hg10 mi
12:15 PM50 °FOvercast.12 mph100%29.77 "Hg7 mi
11:35 AM52 °FMostly cloudy.9 mph100%29.75 "Hg10 mi
11:15 AM52 °FPartly sunny.10 mph100%29.75 "Hg10 mi
10:35 AM52 °FPartly sunny.10 mph100%29.73 "Hg10 mi
10:15 AM52 °FBroken clouds.12 mph100%29.74 "Hg10 mi
9:35 AM52 °FMore clouds than sun.10 mph100%29.74 "Hg10 mi
9:15 AM52 °FOvercast.10 mph100%29.73 "Hg10 mi
8:35 AM52 °FBroken clouds.6 mph100%29.73 "Hg10 mi
8:15 AM52 °FLight rain. Overcast.7 mph100%29.72 "Hg7 mi
7:35 AM54 °FRain. Overcast.3 mph77%29.70 "Hg10 mi
7:15 AM55 °FLight rain. Passing clouds.6 mph72%29.68 "Hg10 mi
6:35 AM57 °FRain. Passing clouds.No wind67%29.68 "Hg10 mi
6:15 AM57 °FPartly cloudy.3 mph63%29.67 "Hg10 mi
Weather by CustomWeather, © 2015

See weather overviewHow to use our weather pages